Regional Weather Roundup
Issued by NWS

Home | Current Version | Previous Version | Text Only | Print | Product List | Glossary On
Versions: 1 2 3 4 5 6 7 8 9 10 11 12 13 14 15 16 17 18 19 20 21 22 23 24 25 26 27 28 29 30 31 32 33 34 35 36 37 38 39 40 41 42 43 44 45 46 47 48 49 50
000
ASUS45 KTFX 250410
RWRMT
MONTANA REGIONAL WEATHER ROUNDUP
NATIONAL WEATHER SERVICE GREAT FALLS MT
1000 PM MDT MON APR 24 2017

NOTE: "FAIR" INDICATES FEW OR NO CLOUDS BELOW 12000 FEET WITH NO
SIGNIFICANT WEATHER AND/OR OBSTRUCTIONS TO VISIBILITY.

MTZ001>007-043-250500-
WEST OF THE DIVIDE

CITY           SKY/WX    TMP DP  RH WIND       PRES   REMARKS
KALISPELL      MOCLDY    43  41  93 NW3       29.67R
MISSOULA       LGT RAIN  43  41  93 N6        29.71R
BUTTE          LGT SNOW  34  32  92 CALM      29.66R FOG
MULLAN PASS    FOG       31  31 100 VRB5      29.69R VSB 1/2
ANACONDA         N/A     39  34  81 W10       29.66R
DEER LODGE       N/A     45  36  70 CALM      29.67R
EUREKA           N/A     43  37  81 CALM      29.69R
HAMILTON         N/A     45  37  76 N7        29.69R
LIBBY            N/A     46  37  71 CALM      29.68R
PLAINS           N/A     47  39  73 CALM      29.73
THOMPSON FALLS   N/A     43  40  89 CALM      29.78R
$$

MTZ008-052>055-250500-
SOUTHWEST MONTANA

CITY           SKY/WX    TMP DP  RH WIND       PRES   REMARKS
BOZEMAN        CLOUDY    46  36  68 SW10      29.59R
DILLON         CLOUDY    39  35  86 SW6       29.63R
W YELLOWSTONE  CLOUDY    32  32 100 CALM      29.63R
ENNIS          CLOUDY    37  36  93 N10       29.67R FOG     WCI  30
THREE FORKS      N/A     45  35  67 CALM      29.65R
TWIN BRIDGES     N/A     42  34  73 N13       29.67
$$

MTZ009-010-012-014-046-048-049-054-250500-
EAST SLOPES AND CENTRAL MONTANA

CITY           SKY/WX    TMP DP  RH WIND       PRES   REMARKS
CUT BANK       CLOUDY    39  36  89 N10       29.69R
GREAT FALLS    CLOUDY    44  37  76 N9        29.67R
MALMSTROM AFB  MOCLDY    44  39  81 NE3       29.67R
HELENA         CLOUDY    48  36  63 N8        29.63R
AUGUSTA        MOCLDY    39  37  92 NE10      29.67R
BOWMANS CRNR   MOCLDY    39  36  89 NE9       29.65R
CHOTEAU          N/A     39  39 100 NE7G14    29.70R
FAIRFIELD      MOCLDY    40  35  82 NE10      29.66R
POWER          LGT RAIN  40  37  91 NW10      29.67R
RAYNESFORD     LGT RAIN  42  39  91 CALM      29.66R
ULM            MOCLDY    44  38  80 NW8       29.66R
$$

MTZ011-013-016-021-045-047-050-051-250500-
NORTH CENTRAL MONTANA

CITY           SKY/WX    TMP DP  RH WIND       PRES   REMARKS
HAVRE          CLOUDY    42  35  76 E24G30    29.68R
LEWISTOWN      CLOUDY    39  35  86 E8        29.65R
N BAR RANCH    CLOUDY    39  37  93 SE3       29.68R
CHINOOK          N/A     39  30  70 E17G23    29.72R WCI  30
DENTON         LGT RAIN  41  40  94 NW16      29.64R
FORT BENTON      N/A     45  39  81 MISG      29.67R
GEYSER         LGT RAIN  40  39  93 E10       29.65R
GRASS RANGE    MOCLDY    42  41  96 NE3       29.64R
JUDITH GAP     MOCLDY    43  35  74 S6        29.63R
STANFORD       LGT RAIN  39  39  99 NE9       29.66R
WINIFRED       MOCLDY    42  40  93 E14       29.66R
$$

MTZ017>020-022>027-061-062-250500-
NORTHEAST MONTANA

CITY           SKY/WX    TMP DP  RH WIND       PRES   REMARKS
GLASGOW        CLOUDY    32  25  75 E16       29.79R WCI  21
JORDAN           N/A     36  30  79 E16       29.72R WCI  26
SIDNEY         CLOUDY    31  28  89 NE14      29.80R WCI  21
WOLF POINT     CLOUDY    33  24  69 E16       29.81R WCI  23
MALTA          CLEAR     34  28  80 E13G20    29.76R WCI  25
PLENTYWOOD       N/A     28  27  93 E15       29.83R WCI  17
POPLAR           N/A     30  25  80 NE13      29.82R WCI  20
SCOBEY           N/A     28  20  72 NE9       29.81  WCI  19
$$

MTZ028>42-056>058-250500-
SOUTHCENTRAL AND SOUTHEAST MONTANA

CITY           SKY/WX    TMP DP  RH WIND       PRES   REMARKS
BAKER          CLOUDY    36  33  89 E15       29.70R WCI  27
BILLINGS       LGT RAIN  45  41  86 NE7       29.62R
LIVINGSTON     RAIN      41  39  93 E9        29.61R FOG
MILES CITY     CLOUDY    40  33  76 NE18      29.69R
BIG TIMBER     CLOUDY    39  37  93 N6G13     29.66R FOG
EKALAKA          N/A     39  33  79 E10       29.66R
LAUREL           N/A     43  39  85 N1        29.65R
ROUNDUP          N/A     45  38  76 NE9       29.60R
$$

REGIONAL REPORTS...DAKOTAS

CITY           SKY/WX    TMP DP  RH WIND       PRES   REMARKS
WILLISTON      CLOUDY    31  26  82 NE14      29.82R WCI  21
MINOT          CLOUDY    32  28  85 N16       29.79R WCI  21
DICKINSON      CLOUDY    29  27  92 NE12      29.72R WCI  19
BEACH          CLOUDY    32  32 100 E14       29.75S WCI  22
TIOGA          CLOUDY    28  28 100 E21       29.81S WCI  15
WATFORD CITY   CLOUDY    30  28  93 NE13      29.79S WCI  20
BISMARCK       CLOUDY    35  30  82 N16       29.74S WCI  25
GRAND FORKS    CLOUDY    34  33  96 N18       29.68S WCI  23
FARGO          CLOUDY    37  35  92 N21G26    29.61S WCI  26
BUFFALO SD       N/A     38  34  85 NE16      29.61R WCI  29
RAPID CITY     CLOUDY    44  37  76 NE17      29.62R
$$

REGIONAL REPORTS...WYOMING/IDAHO/WASHINGTON

CITY           SKY/WX    TMP DP  RH WIND       PRES   REMARKS
GILLETTE       CLOUDY    45  43  93 E9        29.55S
SHERIDAN       LGT RAIN  44  41  89 NE8       29.60R
BUFFALO WY     LGT RAIN  42  37  82 NW3       29.58S
CODY           LGT RAIN  39  36  89 NW10      29.60R
YELLOWSTONE LA   N/A     30  30 100 CALM      29.65R
IDAHO FALLS    LGT RAIN  40  38  93 E3        29.67R
SALMON         CLOUDY    39  37  93 CALM      29.68R
BOISE          LGT RAIN  48  40  73 N5        29.74R
SPOKANE        MOCLDY    46  37  71 W5        29.72R
$$

REGIONAL REPORTS...ALBERTA

CITY           SKY/WX    TMP DP  RH WIND       PRES   REMARKS
EDMONTON       MIX PCPN  32  32 100 N3        29.84R
CALGARY        LGT RAIN  36  32  87 NE13G18   29.76R FOG     WCI  27
LETHBRIDGE     CLOUDY    43  37  81 NE5       29.71R
MEDICINE HAT   CLOUDY    39  36  87 E16G22    29.75R WCI  30
WATERTON GATE    N/A     36  34  93 N7          N/A  WCI  30
CARDSTON         N/A     39  36  87 NE2         N/A
MILK RIVER       N/A     39  37  93 NE8         N/A
ONEFOUR          N/A     39  36  87 E17         N/A  WCI  30
$$

REGIONAL REPORTS...SASKATCHEWAN

CITY           SKY/WX    TMP DP  RH WIND       PRES   REMARKS
SWIFT CURRENT  CLOUDY    28  25  86 E18       29.82R WCI  16
REGINA         MOCLDY    28  21  74 E15       29.91R WCI  17
SASKATOON      CLOUDY    30  23  74 SE7       29.97R WCI  23
VAL MARIE        N/A     30  25  80 E17         N/A  WCI  18
ROCKGLEN         N/A     27  25  93 E6          N/A  WCI  20
ASSINIBOIA       N/A     36  34  93 SE9         N/A  WCI  29
$$



USA.gov is the U.S. government's official web portal to all federal, state and local government web resources and services.